| time (UTC) | temp F | wind direction | speed MPH | gust MPH | rain 1hr in | rain 24hr in | rain mn in | humidity % | barometer mb |
| 20260503003100 | 67 | 342 | 3.0 | 7.0 | 0.00 | 0.00 | 0.00 | 34 | 927.3 |
| 20260503001600 | 66 | 338 | 4.0 | 8.0 | 0.00 | 0.00 | 0.00 | 34 | 927.5 |
| 20260503000035 | 67 | 350 | 9.0 | 12.0 | 0.00 | 0.00 | 0.00 | 33 | 927.4 |
| 20260502234538 | 67 | 35 | 4.0 | 10.0 | 0.00 | 0.00 | 0.00 | 33 | 927.6 |
| 20260502233018 | 68 | 229 | 5.0 | 11.0 | 0.00 | 0.00 | 0.00 | 33 | 927.6 |
| 20260502231516 | 67 | 5 | 6.0 | 15.0 | 0.00 | 0.00 | 0.00 | 33 | 927.9 |
| 20260502230056 | 67 | 31 | 2.0 | 12.0 | 0.00 | 0.00 | 0.00 | 34 | 928.1 |
| 20260502224601 | 67 | 216 | 3.0 | 12.0 | 0.00 | 0.00 | 0.00 | 35 | 928.1 |
| 20260502223037 | 67 | 355 | 6.0 | 10.0 | 0.00 | 0.00 | 0.00 | 34 | 928.2 |
| 20260502221537 | 65 | 28 | 1.0 | 10.0 | 0.00 | 0.00 | 0.00 | 36 | 928.3 |
| 20260502220025 | 66 | 286 | 4.0 | 8.0 | 0.00 | 0.00 | 0.00 | 35 | 928.3 |
| 20260502214535 | 67 | 309 | 7.0 | 14.0 | 0.00 | 0.00 | 0.00 | 35 | 928.6 |
| 20260502213028 | 67 | 24 | 6.0 | 13.0 | 0.00 | 0.00 | 0.00 | 35 | 928.6 |
| 20260502211527 | 67 | 335 | 7.0 | 14.0 | 0.00 | 0.00 | 0.00 | 35 | 928.8 |
| 20260502210028 | 66 | 336 | 8.0 | 13.0 | 0.00 | 0.00 | 0.00 | 37 | 929.0 |
| 20260502204520 | 65 | 5 | 9.0 | 16.0 | 0.00 | 0.00 | 0.00 | 37 | 929.0 |
| 20260502203020 | 66 | 207 | 4.0 | 13.0 | 0.00 | 0.00 | 0.00 | 35 | 929.0 |
| 20260502201522 | 66 | 258 | 5.0 | 15.0 | 0.00 | 0.00 | 0.00 | 35 | 929.2 |
| 20260502200047 | 65 | 355 | 6.0 | 17.0 | 0.00 | 0.00 | 0.00 | 36 | 929.3 |
| 20260502194550 | 66 | 24 | 11.0 | 17.0 | 0.00 | 0.00 | 0.00 | 35 | 929.4 |
| 20260502193029 | 66 | 10 | 9.0 | 14.0 | 0.00 | 0.00 | 0.00 | 37 | 929.5 |
| 20260502191526 | 64 | 24 | 11.0 | 18.0 | 0.00 | 0.00 | 0.00 | 39 | 929.6 |
| 20260502190019 | 64 | 16 | 7.0 | 13.0 | 0.00 | 0.00 | 0.00 | 38 | 929.6 |
| 20260502184510 | 64 | 333 | 7.0 | 11.0 | 0.00 | 0.00 | 0.00 | 38 | 929.7 |
| 20260502183053 | 65 | 54 | 8.0 | 14.0 | 0.00 | 0.00 | 0.00 | 38 | 929.8 |
| 20260502181550 | 65 | 338 | 9.0 | 18.0 | 0.00 | 0.00 | 0.00 | 38 | 929.9 |
| 20260502163034 | 61 | 61 | 7.0 | 17.0 | 0.00 | 0.00 | 0.00 | 43 | 930.1 |
| 20260502161530 | 61 | 49 | 8.0 | 15.0 | 0.00 | 0.00 | 0.00 | 43 | 930.2 |
| 20260502151547 | 58 | 54 | 11.0 | 14.0 | 0.00 | 0.00 | 0.00 | 45 | 930.1 |
| 20260502123048 | 45 | 26 | 12.0 | 17.0 | 0.00 | 0.00 | 0.00 | 60 | 929.3 |
| 20260502121532 | 45 | 26 | 12.0 | 18.0 | 0.00 | 0.00 | 0.00 | 60 | 929.1 |
| 20260502114515 | 46 | 38 | 13.0 | 19.0 | 0.00 | 0.00 | 0.00 | 58 | 928.8 |
| 20260502113010 | 47 | 17 | 10.0 | 18.0 | 0.00 | 0.00 | 0.00 | 56 | 928.7 |
| 20260502111507 | 47 | 36 | 14.0 | 17.0 | 0.00 | 0.00 | 0.00 | 56 | 928.5 |
| 20260502110011 | 47 | 44 | 11.0 | 16.0 | 0.00 | 0.00 | 0.00 | 54 | 928.3 |
| 20260502104501 | 48 | 53 | 11.0 | 15.0 | 0.00 | 0.00 | 0.00 | 52 | 928.1 |
| 20260502103059 | 49 | 44 | 10.0 | 13.0 | 0.00 | 0.00 | 0.00 | 50 | 928.1 |
| 20260502101615 | 49 | 34 | 12.0 | 18.0 | 0.00 | 0.00 | 0.00 | 48 | 927.9 |
| 20260502100110 | 48 | 19 | 11.0 | 15.0 | 0.00 | 0.00 | 0.00 | 49 | 928.0 |
| 20260502091513 | 50 | 360 | 13.0 | 20.0 | 0.00 | 0.00 | 0.00 | 44 | 927.9 |
| 20260502070109 | 49 | 350 | 6.0 | 8.0 | 0.00 | 0.00 | 0.00 | 40 | 927.2 |
| 20260502064610 | 49 | 355 | 6.0 | 9.0 | 0.00 | 0.00 | 0.00 | 40 | 927.3 |
| 20260502063052 | 49 | 355 | 7.0 | 10.0 | 0.00 | 0.00 | 0.00 | 39 | 927.3 |
| 20260502060030 | 50 | 26 | 4.0 | 9.0 | 0.00 | 0.00 | 0.00 | 37 | 927.3 |
| 20260502054507 | 50 | 360 | 6.0 | 8.0 | 0.00 | 0.00 | 0.00 | 35 | 927.3 |
| 20260502053003 | 51 | 335 | 9.0 | 13.0 | 0.00 | 0.00 | 0.00 | 36 | 927.3 |
| 20260502051545 | 54 | 355 | 10.0 | 14.0 | 0.00 | 0.00 | 0.00 | 33 | 927.4 |
| 20260502050047 | 56 | 319 | 4.0 | 13.0 | 0.00 | 0.00 | 0.00 | 31 | 927.3 |
| 20260502044527 | 56 | 336 | 10.0 | 14.0 | 0.00 | 0.00 | 0.00 | 31 | 927.3 |
| 20260502043028 | 56 | 327 | 9.0 | 13.0 | 0.00 | 0.00 | 0.00 | 29 | 927.3 |
| 20260502041510 | 59 | 319 | 10.0 | 15.0 | 0.00 | 0.00 | 0.00 | 26 | 927.3 |
| 20260502040009 | 59 | 329 | 11.0 | 13.0 | 0.00 | 0.00 | 0.00 | 24 | 927.4 |
| 20260502034551 | 59 | 326 | 11.0 | 13.0 | 0.00 | 0.00 | 0.00 | 25 | 927.3 |
| 20260502033051 | 58 | 286 | 3.0 | 6.0 | 0.00 | 0.00 | 0.00 | 27 | 927.2 |
| 20260502031533 | 60 | 310 | 2.0 | 7.0 | 0.00 | 0.00 | 0.00 | 26 | 927.2 |
| 20260502030033 | 62 | 304 | 5.0 | 10.0 | 0.00 | 0.00 | 0.00 | 24 | 927.0 |
| 20260502024516 | 66 | 226 | 6.0 | 7.0 | 0.00 | 0.00 | 0.00 | 22 | 926.9 |
| 20260502023015 | 65 | 217 | 5.0 | 7.0 | 0.00 | 0.00 | 0.00 | 22 | 926.9 |
| 20260502021557 | 66 | 215 | 5.0 | 6.0 | 0.00 | 0.00 | 0.00 | 23 | 926.8 |
| 20260502020056 | 68 | 223 | 6.0 | 8.0 | 0.00 | 0.00 | 0.00 | 21 | 926.8 |
| 20260502014538 | 69 | 225 | 6.0 | 9.0 | 0.00 | 0.00 | 0.00 | 20 | 926.8 |
| 20260502013037 | 73 | 232 | 5.0 | 8.0 | 0.00 | 0.00 | 0.00 | 19 | 926.8 |
| 20260502011518 | 74 | 253 | 8.0 | 15.0 | 0.00 | 0.00 | 0.00 | 18 | 926.9 |
| 20260502010026 | 74 | 238 | 5.0 | 9.0 | 0.00 | 0.00 | 0.00 | 18 | 926.9 |
| 20260502004558 | 74 | 215 | 6.0 | 10.0 | 0.00 | 0.00 | 0.00 | 18 | 927.0 |